Regional Weather Roundup
Issued by NWS

Home | Current Version | Previous Version | Text Only | Print | Product List | Glossary Off
Versions: 1 2 3 4 5 6 7 8 9 10 11 12 13 14 15 16 17 18 19 20 21 22 23 24 25 26 27 28 29 30 31 32 33 34 35 36 37 38 39 40 41 42 43 44 45 46 47 48 49 50

000
ASUS43 KDTX 302001
RWRMI
MICHIGAN HOURLY REGIONAL WEATHER ROUNDUP
NATIONAL WEATHER SERVICE DETROIT/PONTIAC MI
400 PM EDT MON MAR 30 2015

NOTE: "FAIR" INDICATES FEW OR NO CLOUDS BELOW 12,000 FEET WITH NO
SIGNIFICANT WEATHER AND/OR OBSTRUCTION TO VISIBILITY.

MIZ047>049-052>055-059>063-066>070-074>076-081>083-302100-
SOUTHEAST LOWER MICHIGAN

CITY           SKY/WX    TMP DP  RH WIND       PRES   REMARKS
ADRIAN         FAIR      55  23  28 NW23G33   29.93S
ALMA           FAIR      54  22  29 W20G30    29.90R
ANN ARBOR      FAIR      57  20  23 NW29G36   29.89S
BAD AXE        FAIR      45  22  40 NW20G26   29.87R
CARO           FAIR      49  28  44 NW18G28   29.87R
DETROIT CITY   PTSUNNY   57  21  24 NW16G36   29.86F
DETROIT        FAIR      59  22  24 W23G31    29.88S
FLINT          PTSUNNY   54  23  30 NW24G31   29.87R
GROSSE ILE     FAIR      55  18  22 W21G32    29.87S
HILLSDALE      FAIR      55  22  27 NW21G36   29.93S
HOWELL         FAIR      53  21  28 NW24G36   29.88S

CITY           SKY/WX    TMP DP  RH WIND       PRES   REMARKS
JACKSON        FAIR      55  20  25 NW20G43   29.92R
LAMBERTVILLE   PTSUNNY   57  25  28 W16G29    29.92F
LANSING        FAIR      56  24  29 W24G37    29.91S
LAPEER         MOCLDY    52  21  30 NW21G30   29.86R
MASON          FAIR      53  22  29 W28G40    29.91R
MONROE         FAIR      55  27  33 W20G31    29.89S
MT. CLEMENS    PTSUNNY   54  23  29 W23G32    29.82S
PONTIAC        PTSUNNY   53  21  28 NW28G41   29.86R
PORT HOPE        N/A     39  30  70 NW7       29.86R WCI  34
PORT HURON     CLOUDY    52  28  40 NW16G25   29.85R
TRI CITIES     FAIR      52  24  33 W17       29.88R
TROY           FAIR      56  21  26 W22G30    29.87S
SAGINAW HB     FAIR      54  23  30 W22G28    29.87R
$$
MIZ043>046-050>051-056>058-064>065-071>073-077>080-302100-
SOUTHWEST LOWER MICHIGAN

CITY           SKY/WX    TMP DP  RH WIND       PRES   REMARKS
BATTLE CREEK   FAIR      55  24  30 NW22G30   29.95S
BENTON HARBOR  FAIR      54  26  34 W13       30.00F
BIG RAPIDS     FAIR      48  22  35 W15G26    29.91S
COLDWATER      FAIR      55  23  28 W23G32    29.96S
FREMONT        FAIR      52  22  30 NW21G29   29.93S
HOLLAND        FAIR      52  30  43 W14       29.98S
GRAND RAPIDS   FAIR      52  25  35 NW25G35   29.94S
IONIA          FAIR      54  23  29 NW25G36   29.90S
KALAMAZOO      FAIR      54  27  35 NW21G32   29.97S
LUDINGTON      FAIR      51  29  43 W8        29.95S
MARSHALL       FAIR      55  24  30 W23G35    29.93S
MOUNT PLEASANT FAIR      51  23  33 W10G25    29.89R
MUSKEGON       FAIR      51  28  41 W10       29.97S
SOUTH HAVEN    FAIR      52  27  37 W12       29.99S
$$
MIZ016>042-302100-
NORTHERN LOWER MICHIGAN

CITY           SKY/WX    TMP DP  RH WIND       PRES   REMARKS
ALPENA         CLOUDY    38  21  50 NW18G25   29.89R WCI  28
BEAVER ISLAND  FAIR      39  27  62 W6        29.93S WCI  35
BELLAIRE       FAIR      40  27  58 W7        29.95S
CADILLAC       FAIR      43  26  52 NW13G22   29.91S
CHARLEVOIX     FAIR      38  29  69 W10       29.97S WCI  31
FRANKFORT      FAIR      47  23  38 N5        29.94S
GAYLORD        FAIR      35  21  56 NW14G24   29.90R WCI  26
GRAYLING       PTSUNNY   41  24  50 W12G24    29.91S
HARBOR SPRINGS FAIR      37  28  72 SW12      29.93R WCI  29
HOUGHTON LAKE  FAIR      43  20  39 NW17G28   29.90R
MANISTEE       FAIR      46  28  49 NW9       29.95S
OSCODA         CLOUDY    43  22  43 W21G30    29.87R
PELLSTON       PTSUNNY   39  27  62 W14G28    29.92R WCI  31
ROGERS CITY    FAIR      39  26  60 NW15G26   29.90R WCI  31
TRAVERSE CITY  FAIR      46  24  42 N12       29.93S
$$
MIZ007>008-015-302100-
EASTERN UPPER MICHIGAN

CITY           SKY/WX    TMP DP  RH WIND       PRES   REMARKS
KINROSS        PTSUNNY   34  27  75 NW15      29.88R WCI  24
MACKINAC ISLAN PTSUNNY   37  26  66 W9G16     29.89R WCI  30
NEWBERRY       PTSUNNY   34  24  67 NW8G16    29.91R WCI  27
S. S. MARIE    CLOUDY    32  24  72 W12G21    29.88R WCI  23
$$
MIZ004>006-011>014-085-302100-
CENTRAL UPPER MICHIGAN

CITY           SKY/WX    TMP DP  RH WIND       PRES   REMARKS
MANISTIQUE     FAIR      42  28  59 NW9       29.91S
ESCANABA       FAIR      48  21  34 NW8G16    29.88F
MENOMINEE      FAIR      48  27  43 SE14      29.89S
SAWYER-GWINN   SUNNY     36  27  69 NE8       29.89S WCI  29
$$
MIZ001>003-009>011-084-302100-
WESTERN UPPER MICHIGAN

CITY           SKY/WX    TMP DP  RH WIND       PRES   REMARKS
IRON MOUNTAIN  FAIR      51  18  27 NW18G26   29.85F
HOUGHTON       FAIR      38  21  50 W10       29.87F WCI  31
COPPER HARBOR    N/A     34  25  69 E6        29.90F WCI  29
IRONWOOD       FAIR      48  21  34 NW6       29.83F
$$

ABBREVIATIONS USED IN REMARKS
   TC - TEMPERATURE IN CELSIUS
  WCI - WIND CHILL INDEX
   HX - HEAT INDEX
  VSB - VISIBILITY



USA.gov is the U.S. government's official web portal to all federal, state and local government web resources and services.